Location: Madrid
(40.4000°N, 3.6830°W)
Time: 20:22:42
(UTC+01:00)

ISS - Pass Details

Date: 27 February 2021
Orbit: 417 x 422 km, 51.6° (Epoch: 26 February)

Event Time Altitude Azimuth Distance (km) Brightness Sun altitude
Exits shadow 06:25:08 18° 336° (NNW) 1,113 -1.8 -17.2°
Maximum altitude 06:25:22 18° 342° (NNW) 1,109 -1.8 -17.1°
Drops below altitude 10° 06:27:45 10° 28° (NNE) 1,498 -0.6 -16.7°
Sets 06:30:20 0° 48° (NE) 2,364 0.9 -16.2°
